{"data":{"norad_id":39766,"intl_designator":"2014-029A","name":"ALOS-2","alt_names":[],"object_type":"PAYLOAD","status":"ACTIVE","operator":null,"country":"JPN","launch_date":"2014-05-24","launch_site_code":"TANSC","launch_vehicle":null,"mission":null,"orbit_class":"UNKNOWN","rcs_meters":4.096,"size_class":null,"mass_kg":null,"dimensions":null,"purposes":["earth_obs"],"wikipedia_slug":null,"has_3d_model":false,"image_url":null,"decayed_at":null,"tle_current":{"epoch":"2026-05-25T05:04:44.509728Z","epoch_age_seconds":52876,"freshness":"FRESH","line1":"1 39766U 14029A   26145.21162627 -.00000157  00000+0 -14191-4 0  9996","line2":"2 39766  97.9221 242.7047 0001572  91.1209 269.0183 14.79463287648183","mean_motion":14.79463287,"eccentricity":0.0001572,"inclination_deg":97.9221,"raan_deg":242.7047,"arg_perigee_deg":91.1209,"mean_anomaly_deg":269.0183,"bstar":-1.4191e-5,"rev_number":64818,"period_min":97.332594370758,"perigee_km":629.9169497187,"apogee_km":632.12062829877,"semimajor_km":7009.1557890087,"source":"CELESTRAK","updated_at":"2026-05-25T13:38:12.784235Z"}}}